TimePST,TemperatureF,Dew PointF,Humidity,Sea Level PressureIn,VisibilityMPH,Wind Direction,Wind SpeedMPH,Gust SpeedMPH,PrecipitationIn,Events,Conditions,WindDirDegrees,DateUTC
12:53 AM,35.1,28.9,78,30.27,10.0,ESE,3.5,-,N/A,,Overcast,120,2013-02-28 08:53:00
1:53 AM,35.1,28.9,78,30.26,10.0,SE,3.5,-,N/A,,Overcast,140,2013-02-28 09:53:00
2:53 AM,35.1,28.9,78,30.26,10.0,SSE,4.6,-,N/A,,Overcast,150,2013-02-28 10:53:00
3:53 AM,35.6,30.2,81,30.22,10.0,SSE,5.8,-,N/A,,Overcast,160,2013-02-28 11:53:00
4:53 AM,36.0,30.9,82,30.28,7.0,Calm,Calm,-,0.00,Rain,Light Rain,0,2013-02-28 12:53:00
5:43 AM,35.6,33.8,93,30.24,10.0,Calm,Calm,-,0.01,Rain,Light Rain,0,2013-02-28 13:43:00
5:53 AM,35.6,33.8,93,30.24,7.0,Calm,Calm,-,N/A,Rain,Light Rain,0,2013-02-28 13:53:00
6:20 AM,35.6,33.8,93,30.25,7.0,Calm,Calm,-,0.03,Rain,Light Rain,0,2013-02-28 14:20:00
6:53 AM,35.1,34.0,96,30.31,1.0,Calm,Calm,-,0.03,Rain,Light Rain,0,2013-02-28 14:53:00
7:22 AM,35.6,33.8,93,30.27,2.0,SE,3.5,-,N/A,Rain,Light Rain,140,2013-02-28 15:22:00
7:53 AM,35.1,34.0,96,30.32,2.0,SE,6.9,-,0.01,Rain,Light Rain,140,2013-02-28 15:53:00
8:03 AM,35.6,33.8,93,30.27,2.0,SE,4.6,-,0.00,Rain,Light Rain,140,2013-02-28 16:03:00
8:53 AM,36.0,34.0,93,30.33,2.0,SSE,8.1,-,0.00,,Light Drizzle,150,2013-02-28 16:53:00
9:25 AM,35.6,33.8,93,30.28,10.0,SSE,6.9,-,0.00,,Overcast,150,2013-02-28 17:25:00
9:53 AM,37.0,35.1,93,30.35,10.0,SSE,6.9,-,0.00,,Overcast,160,2013-02-28 17:53:00
10:53 AM,37.9,35.1,89,30.35,10.0,SE,5.8,-,N/A,,Overcast,130,2013-02-28 18:53:00
11:53 AM,37.9,36.0,93,30.34,8.0,SE,9.2,-,0.00,Rain,Light Rain,130,2013-02-28 19:53:00
12:53 PM,39.0,36.0,89,30.32,9.0,ESE,8.1,-,0.00,Rain,Light Rain,120,2013-02-28 20:53:00
1:32 PM,39.2,37.4,93,30.27,8.0,ESE,5.8,-,0.01,Rain,Light Rain,120,2013-02-28 21:32:00
1:53 PM,39.2,37.4,93,30.27,8.0,SE,5.8,-,N/A,Rain,Light Rain,130,2013-02-28 21:53:00
2:53 PM,39.9,37.0,89,30.33,8.0,SSE,8.1,-,0.02,Rain,Light Rain,150,2013-02-28 22:53:00
3:53 PM,39.0,37.0,93,30.33,7.0,SSE,9.2,-,0.03,Rain,Light Rain,150,2013-02-28 23:53:00
4:00 PM,39.2,37.4,93,30.28,7.0,SSE,5.8,-,0.00,Rain,Light Rain,150,2013-03-01 00:00:00
4:34 PM,39.2,35.6,87,30.29,7.0,SSE,5.8,-,0.02,Rain,Light Rain,150,2013-03-01 00:34:00
4:53 PM,39.0,36.0,89,30.35,7.0,SSE,5.8,-,0.02,Rain,Light Rain,150,2013-03-01 00:53:00
5:18 PM,39.2,37.4,93,30.30,10.0,SE,5.8,-,0.01,Rain,Light Rain,140,2013-03-01 01:18:00
5:53 PM,37.9,36.0,93,30.35,4.0,SSE,8.1,-,0.01,,Overcast,150,2013-03-01 01:53:00
6:34 PM,37.4,35.6,93,30.29,7.0,SSE,10.4,-,N/A,,Overcast,150,2013-03-01 02:34:00
6:53 PM,37.9,37.0,97,30.35,4.0,SSE,9.2,-,N/A,,Overcast,150,2013-03-01 02:53:00
6:58 PM,37.4,37.4,100,30.30,2.0,SSE,10.4,-,N/A,,Overcast,150,2013-03-01 02:58:00
7:53 PM,37.9,37.0,97,30.35,2.0,SE,5.8,-,N/A,,Overcast,140,2013-03-01 03:53:00
8:05 PM,37.4,37.4,100,30.30,2.0,SE,6.9,-,N/A,,Overcast,140,2013-03-01 04:05:00
8:53 PM,37.9,37.0,97,30.37,2.0,SE,5.8,-,N/A,,Overcast,130,2013-03-01 04:53:00
9:26 PM,37.4,37.4,100,30.31,2.0,SE,6.9,-,N/A,,Overcast,130,2013-03-01 05:26:00
9:53 PM,37.9,37.0,97,30.37,2.0,SE,5.8,-,N/A,,Overcast,140,2013-03-01 05:53:00
10:36 PM,37.4,37.4,100,30.31,2.0,SSE,5.8,-,N/A,,Overcast,150,2013-03-01 06:36:00
10:40 PM,37.4,37.4,100,30.31,0.2,SE,4.6,-,N/A,,Overcast,140,2013-03-01 06:40:00
10:53 PM,37.9,37.9,100,30.36,0.2,SE,6.9,-,N/A,,Overcast,130,2013-03-01 06:53:00
11:53 PM,39.0,39.0,100,30.37,0.2,SSE,4.6,-,N/A,,Overcast,160,2013-03-01 07:53:00